Location: Newark
(47.4833°N, 7.5167°E)
Time: 18:07:28
(UTC+00:00)

N. Korean satellite - Pass Details

Date: 25 October 2019
Orbit: 456 x 506 km, 97.2° (Epoch: 12 November)

Event Time Altitude Azimuth Distance (km) Brightness Sun altitude
Rises 04:13:46 0° 34° (NNE) 2,577 10.8 -19.0°
Reaches altitude 10° 04:17:12 10° 69° (ENE) 1,700 10.4 -18.4°
Maximum altitude 04:18:27 11° 89° (E) 1,614 10.4 -18.2°
Drops below altitude 10° 04:19:41 10° 109° (ESE) 1,703 10.4 -18.0°
Sets 04:23:08 0° 144° (SE) 2,588 10.8 -17.4°
